GALAXY 36 (G-36)

Last updated on Sun Apr 12 2026 00:02:56 GMT+0000 (Coordinated Universal Time)

1 54742U 22170B 26101.50309733 -.00000184 00000+0 00000+0 0 9996 2 54742 0.0118 199.6692 0002838 222.3017 229.8706 1.00271815 12107
UTC large
Height (km)
Speed (km/s)
/
Latitude / Longitude
Inclination (degrees)
Orbital Period (minutes)
Azimuth
Elevation
Range (km)
Doppler Factor

Next 0 passes for location: London (51.5072 / 0.1276)

Sorry there are no passes over London.
GALAXY 36 (G-36)